• en Belgique
  • Liste des pays
  • À 7 jours
  • Température de l'eau
  • Carte satellitaire
  • Carte météo
  • Widgets météo
  • user-avatar
    Se connecter

    Météo par heure à Steniatyn

    Ce jour, 26 Avril, Jeudi

    Heure Température Précipitation Vent Pression Humidité
    00:00 +14°C° 0,1 mm 4 m/s 735 mmHg 85%
    01:00 +13°C° 0,1 mm 4 m/s 736 mmHg 87%
    02:00 +13°C° 0 mm 2 m/s 736 mmHg 91%
    03:00 +13°C° 0 mm 2 m/s 736 mmHg 91%
    04:00 +11°C° 0 mm 3 m/s 737 mmHg 91%
    05:00 +11°C° 0 mm 3 m/s 737 mmHg 91%
    06:00 +11°C° 0 mm 3 m/s 738 mmHg 85%
    07:00 +12°C° 0 mm 4 m/s 738 mmHg 78%
    08:00 +13°C° 0 mm 5 m/s 739 mmHg 70%
    09:00 +14°C° 0 mm 4 m/s 739 mmHg 64%
    10:00 +15°C° 0 mm 4 m/s 739 mmHg 58%
    11:00 +17°C° 0 mm 4 m/s 739 mmHg 51%
    12:00 +16°C° 0 mm 3 m/s 739 mmHg 53%
    13:00 +16°C° 0 mm 3 m/s 739 mmHg 55%
    14:00 +16°C° 0 mm 2 m/s 739 mmHg 57%
    15:00 +15°C° 0,2 mm 2 m/s 739 mmHg 63%
    16:00 +15°C° 0,2 mm 2 m/s 739 mmHg 69%
    17:00 +14°C° 0,2 mm 2 m/s 738 mmHg 75%
    18:00 +13°C° 0,2 mm 2 m/s 739 mmHg 80%
    19:00 +13°C° 0,2 mm 2 m/s 739 mmHg 85%
    20:00 +12°C° 0,2 mm 2 m/s 739 mmHg 90%
    21:00 +12°C° 0,1 mm 2 m/s 739 mmHg 91%
    22:00 +11°C° 0,1 mm 3 m/s 739 mmHg 91%
    23:00 +10°C° 0,1 mm 3 m/s 739 mmHg 91%

    Demain, 27 Avril, Vendredi

    Heure Température Précipitation Vent Pression Humidité
    00:00 +10°C° 0 mm 3 m/s 740 mmHg 91%
    01:00 +9°C° 0 mm 3 m/s 740 mmHg 90%
    02:00 +8°C° 0 mm 4 m/s 740 mmHg 89%
    03:00 +8°C° 0 mm 3 m/s 740 mmHg 91%
    04:00 +7°C° 0 mm 3 m/s 741 mmHg 92%
    05:00 +5°C° 0 mm 3 m/s 741 mmHg 93%
    06:00 +7°C° 0 mm 3 m/s 742 mmHg 89%
    07:00 +8°C° 0 mm 3 m/s 742 mmHg 84%
    08:00 +9°C° 0 mm 3 m/s 742 mmHg 80%
    09:00 +11°C° 0 mm 3 m/s 743 mmHg 71%
    10:00 +12°C° 0 mm 3 m/s 743 mmHg 63%
    11:00 +13°C° 0 mm 3 m/s 743 mmHg 55%
    12:00 +14°C° 0 mm 3 m/s 743 mmHg 53%
    13:00 +14°C° 0 mm 3 m/s 743 mmHg 50%
    14:00 +16°C° 0 mm 3 m/s 743 mmHg 48%
    15:00 +16°C° 0 mm 2 m/s 743 mmHg 48%
    16:00 +16°C° 0 mm 2 m/s 743 mmHg 47%
    17:00 +16°C° 0 mm 2 m/s 742 mmHg 47%
    18:00 +14°C° 0 mm 2 m/s 742 mmHg 52%
    19:00 +13°C° 0 mm 1 m/s 743 mmHg 56%
    20:00 +11°C° 0 mm 1 m/s 743 mmHg 61%
    21:00 +11°C° 0 mm 1 m/s 743 mmHg 63%
    22:00 +9°C° 0 mm 2 m/s 743 mmHg 65%
    23:00 +9°C° 0 mm 2 m/s 743 mmHg 67%

    Après-demain, 28 Avril, Samedi

    Heure Température Précipitation Vent Pression Humidité
    00:00 +9°C° 0 mm 2 m/s 743 mmHg 69%
    01:00 +8°C° 0 mm 2 m/s 743 mmHg 71%
    02:00 +8°C° 0 mm 2 m/s 743 mmHg 74%
    03:00 +8°C° 0 mm 3 m/s 743 mmHg 75%
    04:00 +7°C° 0 mm 3 m/s 743 mmHg 76%
    05:00 +7°C° 0 mm 3 m/s 743 mmHg 78%
    06:00 +8°C° 0 mm 4 m/s 742 mmHg 74%
    07:00 +10°C° 0 mm 4 m/s 742 mmHg 70%
    08:00 +12°C° 0 mm 4 m/s 742 mmHg 66%
    09:00 +14°C° 0 mm 4 m/s 742 mmHg 60%
    10:00 +17°C° 0 mm 4 m/s 742 mmHg 55%
    11:00 +19°C° 0 mm 4 m/s 742 mmHg 49%
    12:00 +20°C° 0 mm 4 m/s 742 mmHg 47%
    13:00 +22°C° 0 mm 4 m/s 742 mmHg 44%
    14:00 +23°C° 0 mm 4 m/s 741 mmHg 42%
    15:00 +23°C° 0 mm 4 m/s 741 mmHg 44%
    16:00 +24°C° 0 mm 3 m/s 741 mmHg 46%
    17:00 +24°C° 0 mm 3 m/s 741 mmHg 47%
    18:00 +21°C° 0 mm 3 m/s 741 mmHg 55%
    19:00 +19°C° 0 mm 2 m/s 741 mmHg 62%
    20:00 +17°C° 0 mm 2 m/s 741 mmHg 69%
    21:00 +17°C° 0 mm 2 m/s 741 mmHg 72%
    22:00 +16°C° 0 mm 2 m/s 741 mmHg 74%
    23:00 +15°C° 0 mm 2 m/s 741 mmHg 77%

    29 Avril, Dimanche

    Heure Température Précipitation Vent Pression Humidité
    00:00 +15°C° 0 mm 2 m/s 741 mmHg 78%
    01:00 +14°C° 0 mm 2 m/s 741 mmHg 80%
    02:00 +14°C° 0 mm 2 m/s 741 mmHg 82%
    03:00 +14°C° 0,1 mm 2 m/s 741 mmHg 83%
    04:00 +13°C° 0,1 mm 3 m/s 741 mmHg 85%
    05:00 +13°C° 0,1 mm 3 m/s 741 mmHg 87%
    06:00 +16°C° 0 mm 3 m/s 741 mmHg 83%
    07:00 +17°C° 0 mm 3 m/s 741 mmHg 79%
    08:00 +19°C° 0 mm 4 m/s 741 mmHg 74%
    09:00 +21°C° 0 mm 4 m/s 741 mmHg 69%
    10:00 +23°C° 0 mm 4 m/s 741 mmHg 63%
    11:00 +26°C° 0 mm 4 m/s 741 mmHg 57%
    12:00 +26°C° 0,2 mm 4 m/s 741 mmHg 54%
    13:00 +27°C° 0,2 mm 4 m/s 741 mmHg 51%
    14:00 +28°C° 0,2 mm 4 m/s 740 mmHg 48%
    15:00 +28°C° 0 mm 4 m/s 740 mmHg 49%
    16:00 +28°C° 0 mm 3 m/s 740 mmHg 50%
    17:00 +27°C° 0 mm 3 m/s 739 mmHg 51%
    18:00 +25°C° 0,1 mm 3 m/s 739 mmHg 58%
    19:00 +22°C° 0,1 mm 3 m/s 739 mmHg 65%
    20:00 +20°C° 0,1 mm 3 m/s 739 mmHg 71%
    21:00 +19°C° 0,1 mm 4 m/s 739 mmHg 72%
    22:00 +18°C° 0,1 mm 4 m/s 739 mmHg 73%
    23:00 +17°C° 0,1 mm 4 m/s 739 mmHg 73%

    30 Avril, Lundi

    Heure Température Précipitation Vent Pression Humidité
    00:00 +16°C° 0 mm 3 m/s 738 mmHg 75%
    01:00 +14°C° 0 mm 3 m/s 738 mmHg 76%
    02:00 +14°C° 0 mm 3 m/s 738 mmHg 78%
    03:00 +13°C° 0 mm 3 m/s 738 mmHg 79%
    04:00 +13°C° 0 mm 3 m/s 738 mmHg 80%
    05:00 +13°C° 0 mm 3 m/s 737 mmHg 81%
    06:00 +14°C° 0 mm 3 m/s 738 mmHg 77%
    07:00 +17°C° 0 mm 3 m/s 738 mmHg 73%
    08:00 +19°C° 0 mm 4 m/s 738 mmHg 68%
    09:00 +21°C° 0 mm 4 m/s 738 mmHg 62%
    10:00 +23°C° 0 mm 4 m/s 738 mmHg 56%
    11:00 +26°C° 0 mm 4 m/s 738 mmHg 49%
    12:00 +26°C° 0 mm 4 m/s 738 mmHg 47%
    13:00 +27°C° 0 mm 4 m/s 738 mmHg 45%
    14:00 +28°C° 0 mm 5 m/s 737 mmHg 43%
    15:00 +28°C° 0 mm 4 m/s 737 mmHg 45%
    16:00 +27°C° 0 mm 4 m/s 737 mmHg 47%
    17:00 +27°C° 0 mm 4 m/s 737 mmHg 49%
    18:00 +25°C° 0 mm 3 m/s 737 mmHg 55%
    19:00 +22°C° 0 mm 3 m/s 738 mmHg 62%
    20:00 +20°C° 0 mm 3 m/s 738 mmHg 69%
    21:00 +19°C° 0,1 mm 3 m/s 738 mmHg 73%
    22:00 +18°C° 0,1 mm 3 m/s 738 mmHg 77%
    23:00 +17°C° 0,1 mm 3 m/s 739 mmHg 81%

    1 Mai, Mardi

    Heure Température Précipitation Vent Pression Humidité
    00:00 +17°C° 0,3 mm 2 m/s 739 mmHg 84%
    01:00 +16°C° 0,3 mm 2 m/s 739 mmHg 88%
    02:00 +15°C° 0,3 mm 2 m/s 739 mmHg 92%
    03:00 +15°C° 0 mm 2 m/s 739 mmHg 92%
    04:00 +14°C° 0 mm 2 m/s 740 mmHg 93%
    05:00 +14°C° 0 mm 2 m/s 740 mmHg 94%
    06:00 +15°C° 0 mm 2 m/s 740 mmHg 88%
    07:00 +17°C° 0 mm 2 m/s 741 mmHg 82%
    08:00 +18°C° 0 mm 3 m/s 741 mmHg 76%
    09:00 +19°C° 0 mm 3 m/s 741 mmHg 71%
    10:00 +21°C° 0 mm 2 m/s 741 mmHg 66%
    11:00 +23°C° 0 mm 2 m/s 741 mmHg 60%
    12:00 +24°C° 0 mm 2 m/s 741 mmHg 58%
    13:00 +25°C° 0 mm 3 m/s 740 mmHg 55%
    14:00 +26°C° 0 mm 3 m/s 740 mmHg 53%
    15:00 +26°C° 0,1 mm 3 m/s 740 mmHg 54%
    16:00 +26°C° 0,1 mm 3 m/s 740 mmHg 56%
    17:00 +26°C° 0,1 mm 3 m/s 739 mmHg 57%
    18:00 +24°C° 0,2 mm 3 m/s 739 mmHg 63%
    19:00 +22°C° 0,2 mm 3 m/s 739 mmHg 69%
    20:00 +20°C° 0,2 mm 3 m/s 739 mmHg 75%
    21:00 +19°C° 0 mm 3 m/s 739 mmHg 77%
    22:00 +18°C° 0 mm 3 m/s 739 mmHg 79%
    23:00 +18°C° 0 mm 3 m/s 739 mmHg 80%
    Voir plus